Location: Zapote
(9.9191°N, 84.0597°W)
Time: 17:17:29
(UTC-06:00)

Transit 2A - Pass Details

Date: 10 March 2021
Orbit: 602 x 957 km, 66.7° (Epoch: 16 April)

Event Time Altitude Azimuth Distance (km) Brightness Sun altitude
Rises 01:52:25 0° 2° (N) 2,862 - -58.2°
Reaches altitude 10° 01:55:03 10° 18° (NNE) 1,987 - -57.6°
Maximum altitude 01:58:29 22° 69° (ENE) 1,423 - -56.7°
Drops below altitude 10° 02:02:05 10° 119° (ESE) 2,106 - -55.9°
Sets 02:04:58 0° 134° (SE) 3,086 - -55.2°
